TECHSAT 1B (GO-32)

Last updated on Wed Sep 09 2026 00:02:45 GMT+0000 (Coordinated Universal Time)

1 25397U 98043D 26251.58288830 .00000037 00000+0 36252-4 0 9999 2 25397 99.0147 246.4736 0001361 24.7719 335.3524 14.24441858463202
UTC large
Height (km)
Speed (km/s)
/
Latitude / Longitude
Inclination (degrees)
Orbital Period (minutes)
Azimuth
Elevation
Range (km)
Doppler Factor

Next 0 passes for location: London (51.5072 / 0.1276)

No passes found over London.
TECHSAT 1B (GO-32)